TimeEST,TemperatureF,Dew PointF,Humidity,Sea Level PressureIn,VisibilityMPH,Wind Direction,Wind SpeedMPH,Gust SpeedMPH,PrecipitationIn,Events,Conditions,WindDirDegrees,DateUTC
12:15 AM,48.7,46.8,93,30.23,10.0,NE,3.5,-,N/A,,Overcast,40,2012-11-15 05:15:00
12:35 AM,49.1,46.9,92,30.23,10.0,NNE,3.5,-,N/A,,Overcast,30,2012-11-15 05:35:00
12:55 AM,49.1,46.9,92,30.22,10.0,NNE,4.6,-,N/A,,Overcast,20,2012-11-15 05:55:00
1:15 AM,48.7,46.8,93,30.22,10.0,North,4.6,-,N/A,,Overcast,10,2012-11-15 06:15:00
1:35 AM,48.6,46.8,93,30.22,10.0,North,5.8,-,N/A,,Overcast,360,2012-11-15 06:35:00
1:55 AM,47.5,47.3,99,30.23,4.0,North,5.8,-,N/A,Rain,Light Rain,350,2012-11-15 06:55:00
2:15 AM,46.6,46.9,100,30.22,2.0,North,4.6,-,N/A,,Drizzle,360,2012-11-15 07:15:00
2:35 AM,46.4,46.6,100,30.22,2.5,North,5.8,-,N/A,,Drizzle,350,2012-11-15 07:35:00
2:55 AM,46.4,46.4,100,30.21,3.0,North,8.1,-,N/A,Thunderstorm,Drizzle,10,2012-11-15 07:55:00
3:15 AM,46.0,46.4,100,30.22,4.0,North,8.1,-,N/A,Thunderstorm,Drizzle,350,2012-11-15 08:15:00
3:35 AM,45.9,46.0,100,30.21,5.0,North,6.9,-,N/A,Rain-Thunderstorm,Light Thunderstorms and Rain,10,2012-11-15 08:35:00
3:55 AM,45.7,45.9,100,30.21,5.0,North,5.8,-,N/A,Rain-Thunderstorm,Light Thunderstorms and Rain,10,2012-11-15 08:55:00
4:15 AM,45.7,45.9,100,30.21,5.0,North,8.1,-,N/A,Rain-Thunderstorm,Light Thunderstorms and Rain,10,2012-11-15 09:15:00
4:35 AM,45.5,45.5,100,30.22,4.0,North,6.9,-,N/A,Rain-Thunderstorm,Light Thunderstorms and Rain,360,2012-11-15 09:35:00
4:55 AM,-9999,-9999,N/A,30.22,4.0,North,5.8,-,N/A,Rain,Light Rain,10,2012-11-15 09:55:00
5:15 AM,-9999,-9999,N/A,30.22,5.0,North,5.8,-,N/A,Rain,Light Rain,10,2012-11-15 10:15:00
5:35 AM,45.1,45.3,100,30.21,7.0,NE,6.9,-,N/A,,Mostly Cloudy,50,2012-11-15 10:35:00
5:55 AM,45.0,45.1,100,30.22,10.0,NE,4.6,-,N/A,,Mostly Cloudy,40,2012-11-15 10:55:00
6:15 AM,44.8,45.0,100,30.22,5.0,NNE,6.9,-,N/A,Rain,Light Rain,30,2012-11-15 11:15:00
6:35 AM,44.8,45.0,100,30.23,7.0,NNE,4.6,-,N/A,,Overcast,20,2012-11-15 11:35:00
7:15 AM,44.6,44.8,100,30.24,10.0,NNE,3.5,-,N/A,,Overcast,30,2012-11-15 12:15:00
7:35 AM,44.6,44.8,100,30.25,10.0,North,4.6,-,N/A,,Overcast,10,2012-11-15 12:35:00
7:55 AM,44.6,44.8,100,30.25,10.0,NNE,3.5,-,N/A,,Overcast,20,2012-11-15 12:55:00
8:15 AM,45.0,45.1,100,30.24,10.0,NNE,4.6,-,N/A,,Overcast,20,2012-11-15 13:15:00
8:35 AM,45.0,45.1,100,30.26,10.0,NNE,4.6,-,N/A,,Overcast,20,2012-11-15 13:35:00
8:55 AM,-9999,-9999,N/A,30.25,10.0,NNE,5.8,-,N/A,,Overcast,30,2012-11-15 13:55:00
9:15 AM,45.5,45.7,100,30.26,10.0,North,3.5,-,N/A,,Overcast,360,2012-11-15 14:15:00
9:35 AM,45.7,45.9,100,30.26,10.0,North,5.8,-,N/A,,Overcast,10,2012-11-15 14:35:00
9:55 AM,46.0,46.2,100,30.27,10.0,North,6.9,-,N/A,,Overcast,360,2012-11-15 14:55:00
10:15 AM,46.4,46.4,100,30.27,10.0,North,4.6,-,N/A,,Overcast,360,2012-11-15 15:15:00
10:35 AM,46.2,46.4,100,30.26,10.0,North,8.1,-,N/A,,Overcast,350,2012-11-15 15:35:00
10:55 AM,46.2,46.4,100,30.26,10.0,North,4.6,-,N/A,,Overcast,10,2012-11-15 15:55:00
11:15 AM,46.4,46.4,100,30.25,10.0,North,5.8,-,N/A,,Overcast,10,2012-11-15 16:15:00
11:35 AM,46.6,46.6,100,30.25,10.0,North,3.5,-,N/A,,Overcast,360,2012-11-15 16:35:00
11:55 AM,46.9,46.4,98,30.24,10.0,NNW,4.6,-,N/A,,Overcast,330,2012-11-15 16:55:00
12:15 PM,47.1,46.6,98,30.24,10.0,North,4.6,-,N/A,,Overcast,360,2012-11-15 17:15:00
12:35 PM,47.7,46.8,97,30.22,10.0,North,5.8,-,N/A,,Overcast,350,2012-11-15 17:35:00
12:55 PM,47.7,46.8,97,30.22,10.0,North,3.5,-,N/A,,Overcast,360,2012-11-15 17:55:00
1:15 PM,48.2,46.9,95,30.21,10.0,North,6.9,-,N/A,,Overcast,360,2012-11-15 18:15:00
1:35 PM,47.8,47.1,97,30.21,10.0,NNW,5.8,-,N/A,,Overcast,340,2012-11-15 18:35:00
1:55 PM,47.1,46.9,99,30.21,7.0,North,5.8,-,N/A,,Overcast,360,2012-11-15 18:55:00
2:15 PM,47.3,47.1,99,30.20,7.0,North,6.9,-,N/A,,Overcast,10,2012-11-15 19:15:00
2:35 PM,47.3,47.1,99,30.21,7.0,North,8.1,-,N/A,,Overcast,360,2012-11-15 19:35:00
2:55 PM,47.5,46.8,97,30.21,10.0,North,4.6,-,N/A,,Overcast,10,2012-11-15 19:55:00
3:15 PM,47.1,46.9,99,30.20,5.0,North,6.9,-,N/A,,Overcast,350,2012-11-15 20:15:00
3:35 PM,46.6,46.8,100,30.20,5.0,NNE,5.8,-,N/A,,Overcast,20,2012-11-15 20:35:00
3:55 PM,46.8,46.9,100,30.20,4.0,NNE,5.8,-,N/A,,Overcast,20,2012-11-15 20:55:00
4:15 PM,46.6,46.8,100,30.20,4.0,North,5.8,-,N/A,,Overcast,10,2012-11-15 21:15:00
4:35 PM,46.4,46.6,100,30.21,5.0,North,6.9,-,N/A,,Overcast,10,2012-11-15 21:35:00
4:55 PM,46.4,46.6,100,30.21,3.0,North,5.8,-,N/A,,Mostly Cloudy,360,2012-11-15 21:55:00
5:15 PM,46.4,46.4,100,30.22,2.5,North,4.6,-,N/A,,Scattered Clouds,350,2012-11-15 22:15:00
5:35 PM,46.0,46.4,100,30.22,2.0,North,6.9,-,N/A,,Scattered Clouds,360,2012-11-15 22:35:00
5:55 PM,46.0,46.2,100,30.22,4.0,North,5.8,-,N/A,,Scattered Clouds,10,2012-11-15 22:55:00
6:15 PM,45.9,46.0,100,30.22,3.0,North,4.6,-,N/A,,Scattered Clouds,10,2012-11-15 23:15:00
6:35 PM,45.9,46.0,100,30.22,3.0,NNE,3.5,-,N/A,,Scattered Clouds,20,2012-11-15 23:35:00
6:55 PM,45.9,46.0,100,30.23,3.0,NNE,3.5,-,N/A,,Clear,20,2012-11-15 23:55:00
7:15 PM,45.9,46.0,100,30.23,7.0,North,4.6,-,N/A,,Mostly Cloudy,10,2012-11-16 00:15:00
7:35 PM,45.9,46.0,100,30.24,5.0,NNE,4.6,-,N/A,,Scattered Clouds,20,2012-11-16 00:35:00
7:55 PM,45.7,45.9,100,30.24,3.0,North,4.6,-,N/A,,Scattered Clouds,10,2012-11-16 00:55:00
8:15 PM,45.7,45.9,100,30.24,4.0,North,5.8,-,N/A,,Scattered Clouds,10,2012-11-16 01:15:00
8:35 PM,45.7,45.9,100,30.25,3.0,North,4.6,-,N/A,,Scattered Clouds,10,2012-11-16 01:35:00
8:55 PM,45.7,45.9,100,30.25,2.5,North,5.8,-,N/A,,Scattered Clouds,10,2012-11-16 01:55:00
9:15 PM,45.5,45.7,100,30.25,2.5,North,5.8,-,N/A,,Scattered Clouds,360,2012-11-16 02:15:00
9:35 PM,45.5,45.7,100,30.25,2.0,North,4.6,-,N/A,,Scattered Clouds,360,2012-11-16 02:35:00
9:55 PM,45.5,45.7,100,30.25,3.0,NNE,3.5,-,N/A,,Scattered Clouds,20,2012-11-16 02:55:00
10:15 PM,45.7,45.9,100,30.25,3.0,North,3.5,-,N/A,,Scattered Clouds,10,2012-11-16 03:15:00
10:35 PM,45.7,45.9,100,30.24,2.0,North,4.6,-,N/A,,Scattered Clouds,360,2012-11-16 03:35:00
10:55 PM,45.5,45.7,100,30.24,2.0,North,3.5,-,N/A,Rain,Rain,10,2012-11-16 03:55:00
11:15 PM,45.5,45.7,100,30.24,3.0,NNE,3.5,-,N/A,,Scattered Clouds,20,2012-11-16 04:15:00
11:35 PM,45.5,45.7,100,30.24,3.0,NNE,5.8,-,N/A,,Mostly Cloudy,30,2012-11-16 04:35:00
11:55 PM,45.5,45.5,100,30.24,2.5,NNE,4.6,-,N/A,,Scattered Clouds,20,2012-11-16 04:55:00